Location: Arrakis Observatory
(44.1122°N, 95.7153°W)
Time: 06:57:48
(UTC-05:00)

Amateur Radio Satellites - All Passes

Search period start: 20 September 2014 06:27
Search period end: 21 September 2014 06:27
Location: Arrakis Observatory, 44.1122°N, 95.7153°W

Satellite Date Start Highest point End Downlink Frequencies (MHz)
Time Altitude Azimuth
JAS-2 20 Sep 06:28:50 06:34:15 33° 96° (E) 06:40:14 435.800 - 435.900 CW/SSB, 435.910 FM
Hamsat 20 Sep 06:33:28 06:36:57 24° 94° (E) 06:40:23 145.90 MHz
RS-15 20 Sep 06:35:37 06:46:22 57° 315° (NW) 06:57:08 29.354 - 29.394 USB, Beacon 29.352 USB
STRAND 1 20 Sep 06:37:18 06:41:58 38° 68° (ENE) 06:46:39 ?
ISS 20 Sep 07:03:33 07:06:17 23° 7° (N) 07:09:00 145.800 FM
UOSAT-12 20 Sep 07:06:53 07:08:12 11° 26° (NNE) 07:09:31 437.025 FM, 437.400 FM
SO-50 20 Sep 07:10:19 07:15:02 54° 51° (NE) 07:19:48 436.795 FM
AO-7 20 Sep 07:16:42 07:24:17 42° 301° (WNW) 07:31:52 29.400 - 29.500 MHz
KITSAT 1 20 Sep 07:17:59 07:22:31 16° 260° (W) 07:27:03 435.175 FM
Uosat F 20 Sep 07:25:09 07:28:23 18° 300° (WNW) 07:31:38 435.120 FM
SO-67 20 Sep 07:41:33 07:43:50 17° 93° (E) 07:46:07 435.3500 MHz FM
Hamsat 20 Sep 08:09:10 08:12:56 31° 291° (WNW) 08:16:40 145.90 MHz
JAS-2 20 Sep 08:13:47 08:19:24 45° 291° (WNW) 08:25:42 435.800 - 435.900 CW/SSB, 435.910 FM
STRAND 1 20 Sep 08:16:54 08:21:14 28° 265° (W) 08:25:35 ?
ISS 20 Sep 08:40:13 08:43:30 54° 26° (NNE) 08:46:46 145.800 FM
UOSAT-12 20 Sep 08:45:05 08:49:37 43° 48° (NE) 08:54:04 437.025 FM, 437.400 FM
SO-50 20 Sep 08:51:37 08:55:16 22° 248° (WSW) 08:58:57 436.795 FM
RS-15 20 Sep 08:52:56 09:01:47 27° 347° (NNW) 09:10:46 29.354 - 29.394 USB, Beacon 29.352 USB
MaSat-1 20 Sep 09:02:11 09:07:11 75° 115° (ESE) 09:12:06 437.345 MHz
AO-7 20 Sep 09:13:12 09:14:51 11° 324° (NW) 09:16:30 29.400 - 29.500 MHz
SO-67 20 Sep 09:13:53 09:16:56 29° 289° (WNW) 09:19:58 435.3500 MHz FM
HO-68 20 Sep 09:22:46 09:28:26 25° 92° (E) 09:34:05 435.675 MHz FM
UKube-1 20 Sep 10:02:18 10:05:20 18° 93° (E) 10:08:21 145.840 MHz, 145.915 MHz
ISS 20 Sep 10:17:18 10:20:01 23° 224° (SW) 10:22:42 145.800 FM
UOSAT-12 20 Sep 10:25:37 10:29:34 27° 246° (WSW) 10:33:28 437.025 FM, 437.400 FM
MaSat-1 20 Sep 10:40:55 10:44:26 19° 313° (NW) 10:47:52 437.345 MHz
RS-15 20 Sep 11:09:24 11:18:46 30° 22° (NNE) 11:28:21 29.354 - 29.394 USB, Beacon 29.352 USB
HO-68 20 Sep 11:09:34 11:16:41 68° 291° (WNW) 11:23:47 435.675 MHz FM
FUNcube-1 20 Sep 11:11:54 11:16:05 33° 96° (E) 11:20:13 145.950 - 145.970 MHz USB
Oscar 11 20 Sep 11:19:56 11:24:19 88° 285° (WNW) 11:28:39 145.825 FM, Beacon 2401.500 USB
UKube-1 20 Sep 11:37:35 11:41:45 44° 290° (WNW) 11:45:53 145.840 MHz, 145.915 MHz
Sapphire 20 Sep 11:51:44 11:55:46 22° 107° (ESE) 11:59:49 437.095 MHz 1200 baud AX-25 AFSK
PCSat 20 Sep 12:17:30 12:22:28 39° 112° (ESE) 12:27:28 145.825 MHz
Oscar 16 20 Sep 12:28:22 12:30:58 14° 57° (ENE) 12:33:34 437.025 USB, Beacon 2401.1428
FUNcube-1 20 Sep 12:48:26 12:52:21 28° 293° (WNW) 12:56:14 145.950 - 145.970 MHz USB
HO-68 20 Sep 12:59:19 13:03:07 15° 311° (NW) 13:06:55 435.675 MHz FM
Oscar 11 20 Sep 12:59:37 12:59:46 10° 301° (WNW) 12:59:55 145.825 FM, Beacon 2401.500 USB
ITAMSAT 1 20 Sep 13:13:09 13:16:03 15° 58° (ENE) 13:18:57 435.822 SSB
Uribyol 2 20 Sep 13:16:39 13:19:57 17° 59° (ENE) 13:23:15 436.500 FM
RS-15 20 Sep 13:22:22 13:33:28 72° 51° (NE) 13:44:59 29.354 - 29.394 USB, Beacon 29.352 USB
Oscar 19 20 Sep 13:25:50 13:30:40 41° 68° (ENE) 13:35:32 437.125 CW, 437.150 USB
JAS-1B 20 Sep 13:28:40 13:35:57 36° 65° (ENE) 13:42:13 435.800 - 435.900 CW/SSB
Sapphire 20 Sep 13:33:25 13:38:44 59° 305° (NW) 13:44:07 437.095 MHz 1200 baud AX-25 AFSK
TMSAT-1 20 Sep 13:44:49 13:45:56 11° 54° (NE) 13:47:02 436.925 FM
AO-27 20 Sep 13:46:31 13:50:56 29° 65° (ENE) 13:55:22 436.795 MHz FM
PCSat 20 Sep 14:00:57 14:05:54 36° 311° (NW) 14:10:54 145.825 MHz
Oscar 16 20 Sep 14:04:22 14:09:34 89° 254° (WSW) 14:14:49 437.025 USB, Beacon 2401.1428
AO-Echo 20 Sep 14:10:57 14:15:30 50° 71° (ENE) 14:20:03 ?
AO-7 20 Sep 14:35:21 14:40:45 20° 47° (NE) 14:46:09 29.400 - 29.500 MHz
Gurwin Techsat 1B 20 Sep 14:43:29 14:48:29 45° 69° (ENE) 14:53:31 435.225 FM
ITAMSAT 1 20 Sep 14:49:42 14:54:52 81° 256° (WSW) 15:00:05 435.822 SSB
Uribyol 2 20 Sep 14:53:42 14:58:51 71° 257° (WSW) 15:04:03 436.500 FM
Oscar 19 20 Sep 15:05:46 15:10:08 27° 266° (W) 15:14:31 437.125 CW, 437.150 USB
JAS-1B 20 Sep 15:18:06 15:26:23 52° 260° (W) 15:33:23 435.800 - 435.900 CW/SSB
TMSAT-1 20 Sep 15:19:38 15:24:52 69° 73° (ENE) 15:30:09 436.925 FM
Sapphire 20 Sep 15:20:36 15:23:21 14° 327° (NNW) 15:26:08 437.095 MHz 1200 baud AX-25 AFSK
Uosat F 20 Sep 15:23:55 15:26:44 15° 59° (ENE) 15:29:32 435.120 FM
AO-27 20 Sep 15:25:31 15:30:18 38° 262° (W) 15:35:08 436.795 MHz FM
RS-15 20 Sep 15:35:26 15:45:04 36° 253° (WSW) 15:55:04 29.354 - 29.394 USB, Beacon 29.352 USB
Oscar 16 20 Sep 15:48:05 15:49:39 11° 273° (W) 15:51:13 437.025 USB, Beacon 2401.1428
AO-Echo 20 Sep 15:51:20 15:54:35 18° 268° (W) 15:57:49 ?
AO-7 20 Sep 16:23:57 16:32:13 74° 68° (ENE) 16:40:30 29.400 - 29.500 MHz
Gurwin Techsat 1B 20 Sep 16:24:19 16:28:38 25° 266° (W) 16:33:00 435.225 FM
JAS-2 20 Sep 16:46:29 16:48:58 14° 57° (ENE) 16:51:27 435.800 - 435.900 CW/SSB, 435.910 FM
Uosat F 20 Sep 16:59:54 17:04:53 77° 256° (WSW) 17:09:55 435.120 FM
TMSAT-1 20 Sep 17:02:06 17:05:18 16° 270° (W) 17:08:32 436.925 FM
MaSat-1 20 Sep 17:18:07 17:21:10 21° 48° (NE) 17:23:54 437.345 MHz
Saudisat 1A 20 Sep 17:19:29 17:23:33 38° 117° (ESE) 17:27:39 436.775 MHz
Hamsat 20 Sep 17:28:24 17:31:48 23° 66° (ENE) 17:35:12 145.90 MHz
KITSAT 1 20 Sep 18:01:43 18:03:46 11° 97° (E) 18:05:48 435.175 FM
OPAL 20 Sep 18:03:31 18:08:35 53° 102° (ESE) 18:13:33 ?
AO-7 20 Sep 18:19:09 18:25:43 26° 267° (W) 18:32:19 29.400 - 29.500 MHz
JAS-2 20 Sep 18:28:08 18:33:23 83° 256° (WSW) 18:38:36 435.800 - 435.900 CW/SSB, 435.910 FM
STRAND 1 20 Sep 18:48:53 18:50:09 11° 87° (E) 18:51:24 ?
MaSat-1 20 Sep 18:54:37 18:57:59 31° 252° (WSW) 19:00:55 437.345 MHz
Saudisat 1A 20 Sep 18:59:21 19:03:12 29° 316° (NW) 19:07:05 436.775 MHz
Hamsat 20 Sep 19:03:31 19:07:33 37° 263° (W) 19:11:36 145.90 MHz
PCSat 20 Sep 19:22:09 19:23:54 11° 29° (NNE) 19:25:39 145.825 MHz
OPAL 20 Sep 19:43:08 19:47:06 23° 300° (WNW) 19:51:00 ?
SO-67 20 Sep 19:47:32 19:50:59 75° 258° (WSW) 19:54:27 435.3500 MHz FM
KITSAT 1 20 Sep 19:49:35 19:57:30 62° 116° (ESE) 20:05:27 435.175 FM
HO-68 20 Sep 19:53:50 19:59:13 24° 55° (NE) 20:04:36 435.675 MHz FM
STRAND 1 20 Sep 20:24:53 20:30:04 87° 104° (ESE) 20:35:13 ?
Sapphire 20 Sep 20:36:54 20:41:35 28° 45° (NE) 20:46:13 437.095 MHz 1200 baud AX-25 AFSK
Oscar 11 20 Sep 20:44:40 20:45:01 10° 59° (ENE) 20:45:22 145.825 FM, Beacon 2401.500 USB
UKube-1 20 Sep 20:59:27 21:02:38 20° 64° (ENE) 21:05:50 145.840 MHz, 145.915 MHz
PCSat 20 Sep 21:03:34 21:08:47 45° 52° (NE) 21:13:58 145.825 MHz
SO-50 20 Sep 21:30:32 21:31:32 11° 107° (ESE) 21:32:32 436.795 FM
HO-68 20 Sep 21:39:04 21:46:12 78° 255° (WSW) 21:53:23 435.675 MHz FM
KITSAT 1 20 Sep 21:45:55 21:53:20 38° 318° (NW) 22:00:48 435.175 FM
STRAND 1 20 Sep 22:05:57 22:08:32 14° 302° (WNW) 22:11:06 ?
FUNcube-1 20 Sep 22:09:46 22:13:42 32° 68° (ENE) 22:17:43 145.950 - 145.970 MHz USB
Oscar 11 20 Sep 22:16:06 22:20:28 87° 76° (ENE) 22:24:52 145.825 FM, Beacon 2401.500 USB
Sapphire 20 Sep 22:20:01 22:25:17 53° 245° (WSW) 22:30:32 437.095 MHz 1200 baud AX-25 AFSK
UKube-1 20 Sep 22:34:28 22:38:34 41° 261° (W) 22:42:42 145.840 MHz, 145.915 MHz
PCSat 20 Sep 22:47:22 22:52:01 30° 250° (WSW) 22:56:38 145.825 MHz
SO-50 20 Sep 23:06:49 23:11:18 90° 314° (NW) 23:15:56 436.795 FM
HO-68 20 Sep 23:31:39 23:35:01 14° 273° (W) 23:38:24 435.675 MHz FM
FUNcube-1 20 Sep 23:46:20 23:50:05 27° 266° (W) 23:53:56 145.950 - 145.970 MHz USB
KITSAT 1 20 Sep 23:46:36 23:51:27 17° 345° (NNW) 23:56:19 435.175 FM
Saudisat 1A 21 Sep 00:06:58 00:08:12 11° 29° (NNE) 00:09:25 436.775 MHz
UOSAT-12 21 Sep 00:37:11 00:41:46 66° 121° (ESE) 00:46:27 437.025 FM, 437.400 FM
SO-50 21 Sep 00:49:33 00:52:33 17° 325° (NW) 00:55:37 436.795 FM
Oscar 19 21 Sep 01:37:53 01:39:58 12° 88° (E) 01:42:03 437.125 CW, 437.150 USB
Saudisat 1A 21 Sep 01:44:32 01:48:50 49° 50° (NE) 01:53:07 436.775 MHz
KITSAT 1 21 Sep 01:45:43 01:50:45 17° 17° (NNE) 01:55:46 435.175 FM
Oscar 16 21 Sep 02:15:04 02:19:34 29° 95° (E) 02:24:00 437.025 USB, Beacon 2401.1428
AO-Echo 21 Sep 02:17:39 02:20:17 14° 90° (E) 02:22:56 ?
UOSAT-12 21 Sep 02:18:43 02:22:21 22° 321° (NW) 02:26:02 437.025 FM, 437.400 FM
Gurwin Techsat 1B 21 Sep 02:59:23 03:02:31 16° 89° (E) 03:05:38 435.225 FM
ISS 21 Sep 02:59:48 03:03:01 49° 143° (SE) 03:06:16 145.800 FM
ITAMSAT 1 21 Sep 03:01:22 03:06:03 32° 96° (E) 03:10:41 435.822 SSB
JAS-1B 21 Sep 03:01:59 03:07:18 38° 97° (E) 03:12:35 435.800 - 435.900 CW/SSB
Uribyol 2 21 Sep 03:05:05 03:09:56 37° 97° (E) 03:14:45 436.500 FM
Oscar 19 21 Sep 03:14:47 03:19:59 84° 285° (WNW) 03:25:07 437.125 CW, 437.150 USB
Saudisat 1A 21 Sep 03:24:50 03:28:06 20° 248° (WSW) 03:31:21 436.775 MHz
TMSAT-1 21 Sep 03:34:34 03:38:52 24° 93° (E) 03:43:07 436.925 FM
AO-27 21 Sep 03:36:27 03:41:41 68° 102° (ESE) 03:46:52 436.795 MHz FM
KITSAT 1 21 Sep 03:41:08 03:48:43 41° 44° (NE) 03:56:15 435.175 FM
OPAL 21 Sep 03:43:23 03:46:42 17° 57° (ENE) 03:50:03 ?
RS-15 21 Sep 03:48:54 03:58:32 37° 107° (ESE) 04:08:01 29.354 - 29.394 USB, Beacon 29.352 USB
Oscar 16 21 Sep 03:54:13 03:58:58 38° 292° (WNW) 04:03:41 437.025 USB, Beacon 2401.1428
AO-Echo 21 Sep 03:54:40 03:59:30 69° 286° (WNW) 04:04:27 ?
AO-7 21 Sep 04:25:05 04:31:02 21° 91° (E) 04:36:56 29.400 - 29.500 MHz
ISS 21 Sep 04:36:46 04:39:50 33° 341° (NNW) 04:42:55 145.800 FM
Gurwin Techsat 1B 21 Sep 04:37:43 04:43:01 71° 287° (WNW) 04:48:18 435.225 FM
ITAMSAT 1 21 Sep 04:40:50 04:45:31 35° 293° (WNW) 04:50:12 435.822 SSB
Uribyol 2 21 Sep 04:44:46 04:49:18 31° 295° (WNW) 04:53:49 436.500 FM
JAS-1B 21 Sep 04:52:58 04:57:56 30° 297° (WNW) 05:02:49 435.800 - 435.900 CW/SSB
Oscar 19 21 Sep 04:56:20 04:58:31 13° 304° (WNW) 05:00:41 437.125 CW, 437.150 USB
Uosat F 21 Sep 05:06:28 05:10:50 29° 96° (E) 05:15:10 435.120 FM
TMSAT-1 21 Sep 05:13:56 05:18:59 46° 291° (WNW) 05:24:02 436.925 FM
AO-27 21 Sep 05:17:13 05:20:39 18° 300° (WNW) 05:24:05 436.795 MHz FM
OPAL 21 Sep 05:19:48 05:24:59 74° 255° (WSW) 05:30:14 ?
JAS-2 21 Sep 05:36:25 05:38:45 12° 88° (E) 05:41:10 435.800 - 435.900 CW/SSB, 435.910 FM
KITSAT 1 21 Sep 05:36:34 05:44:24 56° 246° (WSW) 05:52:11 435.175 FM
SO-50 21 Sep 05:57:05 06:00:49 22° 39° (NE) 06:04:35 436.795 FM
RS-15 21 Sep 05:59:09 06:10:07 69° 310° (NW) 06:21:04 29.354 - 29.394 USB, Beacon 29.352 USB
STRAND 1 21 Sep 06:05:05 06:08:46 21° 61° (ENE) 06:12:27 ?
ISS 21 Sep 06:14:33 06:17:13 22° 1° (N) 06:19:53 145.800 FM
Gurwin Techsat 1B 21 Sep 06:20:35 06:22:02 11° 305° (NW) 06:23:29 435.225 FM
